Карточка аэропорта UUDD

Внимание!
Информация на этой странице в стадии наполнения.
Если вы не увидели какой-то информации, или заметили неточность - пожалуйста сообщите нам!
Спасибо!
Команда RU-STAFF
Название аэропортаДомодедово
Название аэропорта (англ.)Domodedovo
Превышение594 ft. (181.1 m.)
Координаты55°24.516', 37°54.384'
Высота перехода10000 ft
Эшелон переходаQNH>=1013hPa:FL110; QNH<1013hPa:FL120; QNH<977hPa:FL130
Коды ответчика1540-1577
Зона ОрВДМосква РПИ (UUWV)
Данные METARUUDD 091000Z 22002MPS 9999 OVC007 M01/M03 Q1033 R88/520242 NOSIG
Проноз погоды (TAF)UUDD 090757Z 0909/1015 24003MPS 6000 OVC005 TXM01/0912Z TNM05/1005Z BECMG 0910/0912 FEW005 OVC010 TEMPO 0916/1007 -FZDZ OVC005 BECMG 1005/1007 23008G13MPS BECMG 1007/1009 BKN016
NOTAMshow/hide NOTAM
AWOS   TABLE

Информация о ВПП

ВПП Длина ВПП (м.) Покрытие Курс ВПП Частота ILS
14L2370Железобетон135 
32R2370Железобетон315 
14R3500Цементобетон135110.1
32L3500Цементобетон315109.3
143800Цементобетон135108.5
323800Цементобетон315111.9

Диспетчерские позиции

Позывной Наименование органа УВД Частота
UUDD_TWRДомодедово-Вышка118.600
UUDD_TWRДомодедово-Вышка119.700
UUDD_TWRДомодедово-Вышка127.300
UUDD_DELДомодедово-Деливери129.150
UUDD_GNDДомодедово-Перрон119.000
UUDD_R_APPДомодедово-Круг127.700
UUDD_R_APPДомодедово-Круг132.050
UUDD_R_APPДомодедово-Круг119.400
UUDD_R_APPДомодедово-Круг125.300
UUDD_R_APPДомодедово-Круг129.800
UUDD_R_APPДомодедово-Круг134.675



Спутниковое изображение